Greenland, AR

7:28 PM CST on February 26, 2017 (GMT -0600)
Drake

Weather History for KFYV - October, 2014

Change the Weather History Date:

Saturday, October 18, 2014

  Actual Average Record
Temperature  
Mean Temperature 54 °F 57 °F  
Max Temperature 67 °F 70 °F 89 °F (2005)
Min Temperature 40 °F 45 °F 29 °F (2009)
Degree Days  
Heating Degree Days 11 8  
Month to date heating degree days 98 116  
Since 1 July heating degree days 134 168  
Cooling Degree Days 0 0  
Month to date cooling degree days 34 18  
Year to date cooling degree days 1226 1301  
Growing Degree Days 5 (Base 50)    
Moisture  
Dew Point 46 °F    
Average Humidity 73    
Maximum Humidity 100    
Minimum Humidity 45    
Precipitation  
Precipitation 0.00 in 0.15 in 1.00 in (1960)
Month to date precipitation 6.83 2.54  
Year to date precipitation 33.54 39.25  
Sea Level Pressure  
Sea Level Pressure 30.14 in    
Wind  
Wind Speed 2 mph (ENE)    
Max Wind Speed 14 mph    
Max Gust Speed 17 mph    
Visibility 9 miles    
Events      
T = Trace of Precipitation, MM = Missing Value Source: NWS Daily Summary

Daily Weather History Graph

Daily Weather History Graph

Search for Another Location

Airport or City:

Trip Planner

Search our weather history database for the weather conditions in past years. The results will help you decide how hot, cold, wet, or windy it might be!

Date:

Astronomy

Oct. 18, 2014 Rise Set
Actual Time 7:26 AM CDT 6:36 PM CDT
Civil Twilight 7:00 AM CDT 7:02 PM CDT
Nautical Twilight 6:30 AM CDT 7:32 PM CDT
Astronomical Twilight 6:00 AM CDT 8:02 PM CDT
Moon 2:34 AM CDT (10/18) 3:49 PM CDT (10/18)
Length of Visible Light 12h 02m
Length of Day
11h 10m
Waning Crescent, 24% of the Moon is Illuminated
Oct 18
Waning Crescent
Oct 23
New
Oct 30
First Quarter
Nov 6
Full
Nov 14
Last Quarter

Hourly Weather History & Observations

Time (CDT) Temp. Windchill Dew Point Humidity Pressure Visibility Wind Dir Wind Speed Gust Speed Precip Events Conditions
12:53 AM 52.0 °F - 48.9 °F 89% 30.06 in 10.0 mi ENE 4.6 mph - N/A   Clear
1:53 AM 48.0 °F - 46.9 °F 96% 30.06 in 10.0 mi Calm Calm - N/A   Clear
2:53 AM 46.9 °F - 46.9 °F 100% 30.06 in 10.0 mi Calm Calm - N/A   Clear
3:53 AM 46.9 °F - 46.9 °F 100% 30.07 in 10.0 mi Calm Calm - N/A   Clear
4:08 AM 46.0 °F - 46.0 °F 100% 30.09 in 1.8 mi Calm Calm - N/A   Clear
4:36 AM 45.0 °F 43.5 °F 45.0 °F 100% 30.10 in 3.0 mi South 3.5 mph - N/A   Clear
4:53 AM 46.0 °F 44.8 °F 46.0 °F 100% 30.09 in 10.0 mi South 3.5 mph - N/A   Clear
5:53 AM 46.9 °F - 46.0 °F 97% 30.11 in 10.0 mi Calm Calm - N/A   Clear
6:53 AM 46.0 °F - 45.0 °F 96% 30.13 in 10.0 mi Calm Calm - N/A   Clear
7:53 AM 45.0 °F - 45.0 °F 100% 30.14 in 10.0 mi Calm Calm - N/A   Clear
8:53 AM 50.0 °F - 48.9 °F 96% 30.18 in 10.0 mi Calm Calm - N/A   Clear
9:53 AM 55.0 °F - 48.9 °F 80% 30.18 in 10.0 mi ENE 5.8 mph - N/A   Clear
10:53 AM 57.9 °F - 48.9 °F 72% 30.19 in 10.0 mi East 6.9 mph - N/A   Clear
11:53 AM 60.1 °F - 46.9 °F 62% 30.18 in 10.0 mi Calm Calm - N/A   Clear
12:53 PM 62.1 °F - 46.0 °F 56% 30.17 in 10.0 mi Variable 3.5 mph - N/A   Clear
1:53 PM 66.0 °F - 45.0 °F 47% 30.15 in 10.0 mi North 9.2 mph - N/A   Clear
2:53 PM 66.9 °F - 45.0 °F 45% 30.14 in 10.0 mi Variable 4.6 mph - N/A   Clear
3:53 PM 66.9 °F - 45.0 °F 45% 30.14 in 10.0 mi ENE 8.1 mph - N/A   Clear
4:53 PM 64.0 °F - 44.1 °F 48% 30.14 in 10.0 mi Variable 3.5 mph - N/A   Clear
5:53 PM 60.1 °F - 46.9 °F 62% 30.15 in 10.0 mi NNE 3.5 mph - N/A   Clear
6:53 PM 54.0 °F - 46.9 °F 77% 30.16 in 10.0 mi Calm Calm - N/A   Clear
7:53 PM 50.0 °F - 48.0 °F 93% 30.18 in 10.0 mi Calm Calm - N/A   Clear
8:53 PM 46.0 °F - 46.0 °F 100% 30.19 in 10.0 mi Calm Calm - N/A   Clear
9:53 PM 46.0 °F - 45.0 °F 96% 30.19 in 1.8 mi Calm Calm - N/A   Clear
10:02 PM 45.0 °F - 45.0 °F 100% 30.19 in 3.0 mi Calm Calm - N/A   Clear
10:53 PM 44.1 °F - 44.1 °F 100% 30.19 in 8.0 mi Calm Calm - N/A   Clear
11:53 PM 43.0 °F - 43.0 °F 100% 30.20 in 10.0 mi Calm Calm - N/A   Clear